Weather History for KGDV - November, 2010

Change the Weather History Date:

Thursday, November 18, 2010

  Actual Average Record
Temperature  
Mean Temperature 35 °F -  
Max Temperature 44 °F 37 °F - (-1)
Min Temperature 26 °F 18 °F - (-1)
Degree Days  
Heating Degree Days 30    
Moisture  
Dew Point 27 °F    
Average Humidity 78    
Maximum Humidity 93    
Minimum Humidity 57    
Precipitation  
Precipitation 0.00 in - - ()
Sea Level Pressure  
Sea Level Pressure 29.74 in    
Wind  
Wind Speed 10 mph (SSE)    
Max Wind Speed 32 mph    
Max Gust Speed 38 mph    
Visibility 10 miles    
Events      
Averages and records for this station are not official NWS values.
T = Trace of Precipitation, MM = Missing Value Source: NWS Daily Summary

Daily Weather History Graph

Daily Weather History Graph

Search for Another Location

Airport or City:

Trip Planner

Search our weather history database for the weather conditions in past years. The results will help you decide how hot, cold, wet, or windy it might be!

Date:

Astronomy

Nov. 18, 2010 Rise Set
Actual Time 7:07 AM MST 4:20 PM MST
Civil Twilight 6:33 AM MST 4:54 PM MST
Nautical Twilight 5:56 AM MST 5:31 PM MST
Astronomical Twilight 5:20 AM MST 6:07 PM MST
Moon 2:27 PM MST (11/18) 3:59 AM MST (11/18)
Length of Visible Light 10h 20m
Length of Day
9h 13m
Waxing Gibbous, 91% of the Moon is Illuminated
Nov 18
Waxing Gibbous
Nov 21
Full
Nov 28
Last Quarter
Dec 5
New
Dec 13
First Quarter

Hourly Weather History & Observations

Time (MST) Temp. Windchill Dew Point Humidity Pressure Visibility Wind Dir Wind Speed Gust Speed Precip Events Conditions
12:15 AM 26.6 °F 19.1 °F 24.8 °F 93% 30.03 in 10.0 mi East 6.9 mph - N/A   Overcast
12:35 AM 28.4 °F 20.4 °F 24.8 °F 86% 30.02 in 10.0 mi ESE 8.1 mph - N/A   Overcast
12:55 AM 28.4 °F 20.4 °F 24.8 °F 86% 30.01 in 10.0 mi ESE 8.1 mph - N/A   Overcast
1:15 AM 28.4 °F 20.4 °F 24.8 °F 86% 30.00 in 10.0 mi ESE 8.1 mph - N/A   Overcast
1:35 AM 30.2 °F 21.3 °F 24.8 °F 80% 29.99 in 10.0 mi SE 10.4 mph - N/A   Overcast
1:55 AM 30.2 °F 22.6 °F 26.6 °F 86% 29.98 in 10.0 mi SE 8.1 mph - N/A   Overcast
2:15 AM 30.2 °F 23.4 °F 26.6 °F 86% 29.98 in 10.0 mi SE 6.9 mph - N/A   Overcast
2:35 AM 30.2 °F 21.3 °F 26.6 °F 86% 29.97 in 10.0 mi SSE 10.4 mph - N/A   Overcast
2:55 AM 30.2 °F 20.8 °F 26.6 °F 86% 29.95 in 10.0 mi SSE 11.5 mph - N/A   Overcast
3:15 AM 32.0 °F 24.2 °F 26.6 °F 80% 29.94 in 10.0 mi SSE 9.2 mph - N/A   Overcast
3:35 AM 32.0 °F 22.5 °F 26.6 °F 80% 29.92 in 10.0 mi SSE 12.7 mph - N/A   Overcast
3:55 AM 32.0 °F 23.0 °F 26.6 °F 80% 29.92 in 10.0 mi SSE 11.5 mph - N/A   Overcast
4:15 AM 30.2 °F 20.8 °F 26.6 °F 86% 29.90 in 10.0 mi SSE 11.5 mph - N/A   Overcast
4:35 AM 30.2 °F 21.3 °F 26.6 °F 86% 29.88 in 10.0 mi SSE 10.4 mph - N/A   Overcast
4:55 AM 30.2 °F 21.9 °F 26.6 °F 86% 29.88 in 10.0 mi SSE 9.2 mph - N/A   Overcast
5:15 AM 30.2 °F 22.6 °F 26.6 °F 86% 29.88 in 10.0 mi SSE 8.1 mph - N/A   Overcast
5:35 AM 30.2 °F 23.4 °F 26.6 °F 86% 29.86 in 10.0 mi SSE 6.9 mph - N/A   Overcast
5:55 AM 30.2 °F 21.9 °F 26.6 °F 86% 29.85 in 10.0 mi SSE 9.2 mph - N/A   Overcast
6:15 AM 30.2 °F 20.8 °F 26.6 °F 86% 29.84 in 10.0 mi South 11.5 mph - N/A   Overcast
6:35 AM 30.2 °F 21.3 °F 26.6 °F 86% 29.82 in 10.0 mi South 10.4 mph - N/A   Overcast
6:55 AM 30.2 °F 24.3 °F 26.6 °F 86% 29.81 in 10.0 mi SSE 5.8 mph - N/A   Overcast
7:15 AM 30.2 °F 22.6 °F 26.6 °F 86% 29.78 in 10.0 mi ESE 8.1 mph - N/A   Overcast
7:35 AM 30.2 °F 22.6 °F 26.6 °F 86% 29.77 in 10.0 mi SSE 8.1 mph - N/A   Overcast
7:55 AM 30.2 °F 20.8 °F 26.6 °F 86% 29.76 in 10.0 mi SSE 11.5 mph - N/A   Overcast
8:15 AM 30.2 °F 19.8 °F 26.6 °F 86% 29.75 in 10.0 mi SSE 13.8 mph 21.9 mph N/A   Overcast
8:35 AM 32.0 °F 20.8 °F 28.4 °F 87% 29.73 in 10.0 mi SSE 17.3 mph - N/A   Overcast
8:55 AM 32.0 °F 22.1 °F 26.6 °F 80% 29.72 in 10.0 mi SSE 13.8 mph - N/A   Overcast
9:15 AM 32.0 °F 24.2 °F 26.6 °F 80% 29.70 in 10.0 mi SSE 9.2 mph - N/A   Mostly Cloudy
9:35 AM 32.0 °F 24.8 °F 26.6 °F 80% 29.68 in 10.0 mi SE 8.1 mph - N/A   Clear
9:55 AM 33.8 °F 26.4 °F 26.6 °F 75% 29.66 in 10.0 mi SE 9.2 mph - N/A   Clear
10:15 AM 35.6 °F 28.0 °F 26.6 °F 70% 29.64 in 10.0 mi SSE 10.4 mph - N/A   Clear
10:35 AM 35.6 °F 30.7 °F 26.6 °F 70% 29.65 in 10.0 mi South 5.8 mph - N/A   Clear
10:55 AM 35.6 °F 28.0 °F 28.4 °F 75% 29.64 in 10.0 mi South 10.4 mph - N/A   Mostly Cloudy
11:15 AM 35.6 °F 26.6 °F 28.4 °F 75% 29.62 in 10.0 mi SSE 13.8 mph - N/A   Overcast
11:35 AM 35.6 °F 29.2 °F 28.4 °F 75% 29.60 in 10.0 mi SSE 8.1 mph - N/A   Mostly Cloudy
11:55 AM 35.6 °F 29.9 °F 28.4 °F 75% 29.58 in 10.0 mi SSE 6.9 mph - N/A   Partly Cloudy
12:15 PM 37.4 °F 30.8 °F 28.4 °F 70% 29.58 in 10.0 mi SSE 9.2 mph - N/A   Clear
12:35 PM 37.4 °F 31.4 °F 28.4 °F 70% 29.56 in 10.0 mi SSE 8.1 mph - N/A   Clear
12:55 PM 39.2 °F 32.5 °F 28.4 °F 65% 29.55 in 10.0 mi South 10.4 mph - N/A   Clear
1:15 PM 41.0 °F 34.7 °F 30.2 °F 65% 29.54 in 10.0 mi South 10.4 mph - N/A   Clear
1:35 PM 41.0 °F 36.4 °F 30.2 °F 65% 29.53 in 10.0 mi South 6.9 mph - N/A   Clear
1:55 PM 42.8 °F 38.0 °F 30.2 °F 61% 29.52 in 10.0 mi SSE 8.1 mph - N/A   Clear
2:15 PM 44.6 °F 39.7 °F 32.0 °F 61% 29.52 in 10.0 mi South 9.2 mph - N/A   Partly Cloudy
2:35 PM 44.6 °F 42.2 °F 30.2 °F 57% 29.52 in 10.0 mi South 4.6 mph - N/A   Mostly Cloudy
2:55 PM 44.6 °F 42.2 °F 30.2 °F 57% 29.53 in 10.0 mi SSW 4.6 mph - N/A   Mostly Cloudy
3:15 PM 44.6 °F 41.4 °F 30.2 °F 57% 29.53 in 10.0 mi SW 5.8 mph - N/A   Partly Cloudy
3:35 PM 42.8 °F 40.1 °F 30.2 °F 61% 29.54 in 10.0 mi West 4.6 mph - N/A   Clear
3:55 PM 41.0 °F 35.2 °F 30.2 °F 65% 29.56 in 10.0 mi West 9.2 mph - N/A   Clear
4:15 PM 37.4 °F 26.9 °F 28.4 °F 70% 29.58 in 10.0 mi WNW 20.7 mph 29.9 mph N/A   Clear
4:35 PM 33.8 °F 21.6 °F 26.6 °F 75% 29.60 in 10.0 mi WNW 23.0 mph 32.2 mph N/A   Clear
4:55 PM 32.0 °F 18.9 °F 26.6 °F 80% 29.62 in 10.0 mi WNW 24.2 mph 29.9 mph N/A   Clear
5:15 PM 32.0 °F 17.2 °F 26.6 °F 80% 29.61 in 10.0 mi NW 32.2 mph 38.0 mph N/A   Mostly Cloudy
5:35 PM 30.2 °F 15.7 °F 26.6 °F 86% 29.63 in 10.0 mi NW 27.6 mph 34.5 mph N/A   Overcast
5:55 PM 30.2 °F 20.2 °F 24.8 °F 80% 29.67 in 10.0 mi NNW 12.7 mph 27.6 mph N/A   Overcast
6:15 PM 30.2 °F 18.5 °F 24.8 °F 80% 29.72 in 10.0 mi NW 17.3 mph 26.5 mph N/A   Overcast
6:35 PM 28.4 °F 13.0 °F 23.0 °F 80% 29.72 in 9.0 mi NW 28.8 mph 35.7 mph N/A   Overcast
6:55 PM 28.4 °F 15.8 °F 21.2 °F 74% 29.73 in 10.0 mi NW 18.4 mph 27.6 mph N/A   Overcast
7:15 PM 28.4 °F 14.4 °F 23.0 °F 80% 29.74 in 10.0 mi WNW 23.0 mph 26.5 mph N/A   Overcast
7:35 PM 26.6 °F 14.3 °F 21.2 °F 80% 29.74 in 10.0 mi NW 16.1 mph 27.6 mph N/A   Overcast
7:55 PM 26.6 °F 13.1 °F 19.4 °F 74% 29.80 in 10.0 mi WNW 19.6 mph 23.0 mph N/A   Overcast
8:15 PM 26.6 °F 12.7 °F 17.6 °F 69% 29.81 in 10.0 mi WNW 20.7 mph 26.5 mph N/A   Overcast
8:35 PM 24.8 °F 9.6 °F 19.4 °F 80% 29.84 in 10.0 mi West 23.0 mph 28.8 mph N/A   Overcast
8:55 PM 23.0 °F 8.0 °F 17.6 °F 80% 29.82 in 10.0 mi WNW 20.7 mph 26.5 mph N/A   Overcast
9:15 PM 23.0 °F 8.0 °F 17.6 °F 80% 29.84 in 10.0 mi NW 20.7 mph 31.1 mph N/A   Mostly Cloudy
9:35 PM 21.2 °F 5.2 °F 15.8 °F 80% 29.85 in 10.0 mi WNW 21.9 mph - N/A   Overcast
9:55 PM 21.2 °F 5.6 °F 15.8 °F 80% 29.88 in 10.0 mi West 20.7 mph 24.2 mph N/A   Overcast
10:15 PM 21.2 °F 6.0 °F 12.2 °F 68% 29.88 in 10.0 mi WNW 19.6 mph 26.5 mph N/A   Overcast
10:35 PM 19.4 °F 2.8 °F 14.0 °F 80% 29.88 in 10.0 mi NW 21.9 mph 27.6 mph N/A   Overcast
10:55 PM 19.4 °F 3.6 °F 12.2 °F 74% 29.91 in 10.0 mi WNW 19.6 mph 28.8 mph N/A   Overcast
11:15 PM 17.6 °F 3.2 °F 12.2 °F 79% 29.91 in 10.0 mi WNW 15.0 mph 25.3 mph N/A   Overcast
11:35 PM 17.6 °F 1.7 °F 10.4 °F 73% 29.93 in 10.0 mi WNW 18.4 mph 24.2 mph N/A   Overcast
11:55 PM 15.8 °F 0.3 °F 8.6 °F 73% 29.95 in 10.0 mi NW 16.1 mph 26.5 mph N/A   Overcast